Location: Unspecified
(0.0000°N, 0.0000°E)
Time: 01:26:14
(UTC+00:00)

S-56A Canister/Altair - Pass Details

Date: 25 November 2019
Orbit: 633 x 2499 km, 38.9° (Epoch: 10 December)

Event Time Altitude Azimuth Distance (km) Brightness Sun altitude
Rises 11:42:24 0° 233° (SW) 5,874 12.2 69.2°
Reaches altitude 10° 11:46:03 10° 234° (SW) 4,998 12.0 69.3°
Maximum altitude 12:01:00 74° 317° (NW) 2,546 11.3 69.0°
Drops below altitude 10° 12:14:51 10° 41° (NE) 4,658 11.4 68.2°
Sets 12:18:08 0° 43° (NE) 5,469 11.7 67.9°
